<?xml version="1.0" encoding="UTF-8"?>
<gpx
version="1.1"
creator="Kashmir3D 9.350 - http://www.kashmir3d.com"
xmlns:xsi="http://www.w3.org/2001/XMLSchema-instance"
xmlns="http://www.topografix.com/GPX/1/1"
xmlns:kashmir3d="http://www.kashmir3d.com/namespace/kashmir3d"
xsi:schemaLocation="http://www.topografix.com/GPX/1/1 http://www.topografix.com/GPX/1/1/gpx.xsd
	http://www.kashmir3d.com/namespace/kashmir3d http://www.kashmir3d.com/namespace/kashmir3d.xsd">
<trk>
 <name>KYUUSHOUZAN.KML(久松山)</name>
 <number>1</number>
 <extensions>
 <kashmir3d:line_color>0000ff</kashmir3d:line_color>
 <kashmir3d:line_size>3</kashmir3d:line_size>
 <kashmir3d:line_style>1</kashmir3d:line_style>
 <kashmir3d:icon>901001</kashmir3d:icon>
 </extensions>
<trkseg>
<trkpt lat="35.507404" lon="134.235902">
 <ele>4.6</ele>
 <time>2020-03-24T15:56:47Z</time>
</trkpt>
<trkpt lat="35.507721" lon="134.236568">
 <ele>6.2</ele>
 <time>2020-03-24T15:56:47Z</time>
</trkpt>
<trkpt lat="35.507859" lon="134.236857">
 <ele>7.6</ele>
 <time>2020-03-24T15:56:47Z</time>
</trkpt>
<trkpt lat="35.507936" lon="134.237029">
 <ele>8.4</ele>
 <time>2020-03-24T15:56:48Z</time>
</trkpt>
<trkpt lat="35.508013" lon="134.237168">
 <ele>10.1</ele>
 <time>2020-03-24T15:56:48Z</time>
</trkpt>
<trkpt lat="35.507970" lon="134.237286">
 <ele>12.9</ele>
 <time>2020-03-24T15:56:48Z</time>
</trkpt>
<trkpt lat="35.507841" lon="134.237544">
 <ele>15.1</ele>
 <time>2020-03-24T15:56:48Z</time>
</trkpt>
<trkpt lat="35.507798" lon="134.237630">
 <ele>15.5</ele>
 <time>2020-03-24T15:56:48Z</time>
</trkpt>
<trkpt lat="35.507781" lon="134.237726">
 <ele>17.7</ele>
 <time>2020-03-24T15:56:48Z</time>
</trkpt>
<trkpt lat="35.507893" lon="134.237855">
 <ele>24.2</ele>
 <time>2020-03-24T15:56:48Z</time>
</trkpt>
<trkpt lat="35.507962" lon="134.237866">
 <ele>25.4</ele>
 <time>2020-03-24T15:56:48Z</time>
</trkpt>
<trkpt lat="35.508150" lon="134.237683">
 <ele>26.1</ele>
 <time>2020-03-24T15:56:49Z</time>
</trkpt>
<trkpt lat="35.508296" lon="134.237576">
 <ele>26.1</ele>
 <time>2020-03-24T15:56:49Z</time>
</trkpt>
<trkpt lat="35.508339" lon="134.237587">
 <ele>26.2</ele>
 <time>2020-03-24T15:56:49Z</time>
</trkpt>
<trkpt lat="35.508399" lon="134.237716">
 <ele>34.1</ele>
 <time>2020-03-24T15:56:49Z</time>
</trkpt>
<trkpt lat="35.508442" lon="134.237823">
 <ele>40.6</ele>
 <time>2020-03-24T15:56:49Z</time>
</trkpt>
<trkpt lat="35.508408" lon="134.237898">
 <ele>38.9</ele>
 <time>2020-03-24T15:56:49Z</time>
</trkpt>
<trkpt lat="35.508116" lon="134.238037">
 <ele>36.9</ele>
 <time>2020-03-24T15:56:49Z</time>
</trkpt>
<trkpt lat="35.508030" lon="134.238145">
 <ele>37.5</ele>
 <time>2020-03-24T15:56:49Z</time>
</trkpt>
<trkpt lat="35.507867" lon="134.238349">
 <ele>37.7</ele>
 <time>2020-03-24T15:56:50Z</time>
</trkpt>
<trkpt lat="35.507824" lon="134.238488">
 <ele>37.8</ele>
 <time>2020-03-24T15:56:50Z</time>
</trkpt>
<trkpt lat="35.507730" lon="134.238756">
 <ele>37.9</ele>
 <time>2020-03-24T15:56:50Z</time>
</trkpt>
<trkpt lat="35.507687" lon="134.238874">
 <ele>38</ele>
 <time>2020-03-24T15:56:50Z</time>
</trkpt>
<trkpt lat="35.507704" lon="134.238971">
 <ele>38.1</ele>
 <time>2020-03-24T15:56:50Z</time>
</trkpt>
<trkpt lat="35.507738" lon="134.239046">
 <ele>38.7</ele>
 <time>2020-03-24T15:56:50Z</time>
</trkpt>
<trkpt lat="35.507738" lon="134.239132">
 <ele>40</ele>
 <time>2020-03-24T15:56:50Z</time>
</trkpt>
<trkpt lat="35.507713" lon="134.239218">
 <ele>42.2</ele>
 <time>2020-03-24T15:56:50Z</time>
</trkpt>
<trkpt lat="35.507695" lon="134.239314">
 <ele>43.8</ele>
 <time>2020-03-24T15:56:51Z</time>
</trkpt>
<trkpt lat="35.507678" lon="134.239389">
 <ele>46.3</ele>
 <time>2020-03-24T15:56:51Z</time>
</trkpt>
<trkpt lat="35.507781" lon="134.239346">
 <ele>49.5</ele>
 <time>2020-03-24T15:56:51Z</time>
</trkpt>
<trkpt lat="35.507850" lon="134.239357">
 <ele>52.3</ele>
 <time>2020-03-24T15:56:51Z</time>
</trkpt>
<trkpt lat="35.507884" lon="134.239443">
 <ele>56.9</ele>
 <time>2020-03-24T15:56:51Z</time>
</trkpt>
<trkpt lat="35.507944" lon="134.239507">
 <ele>62.8</ele>
 <time>2020-03-24T15:56:51Z</time>
</trkpt>
<trkpt lat="35.508039" lon="134.239507">
 <ele>68.3</ele>
 <time>2020-03-24T15:56:51Z</time>
</trkpt>
<trkpt lat="35.508150" lon="134.239464">
 <ele>72.9</ele>
 <time>2020-03-24T15:56:51Z</time>
</trkpt>
<trkpt lat="35.508228" lon="134.239454">
 <ele>75.4</ele>
 <time>2020-03-24T15:56:52Z</time>
</trkpt>
<trkpt lat="35.508288" lon="134.239454">
 <ele>77.8</ele>
 <time>2020-03-24T15:56:52Z</time>
</trkpt>
<trkpt lat="35.508305" lon="134.239518">
 <ele>80.2</ele>
 <time>2020-03-24T15:56:52Z</time>
</trkpt>
<trkpt lat="35.508262" lon="134.239572">
 <ele>78.6</ele>
 <time>2020-03-24T15:56:52Z</time>
</trkpt>
<trkpt lat="35.508202" lon="134.239657">
 <ele>79.7</ele>
 <time>2020-03-24T15:56:52Z</time>
</trkpt>
<trkpt lat="35.508176" lon="134.239733">
 <ele>80.2</ele>
 <time>2020-03-24T15:56:52Z</time>
</trkpt>
<trkpt lat="35.508150" lon="134.239808">
 <ele>80.2</ele>
 <time>2020-03-24T15:56:52Z</time>
</trkpt>
<trkpt lat="35.508168" lon="134.239861">
 <ele>83.5</ele>
 <time>2020-03-24T15:56:53Z</time>
</trkpt>
<trkpt lat="35.508228" lon="134.239872">
 <ele>86</ele>
 <time>2020-03-24T15:56:53Z</time>
</trkpt>
<trkpt lat="35.508279" lon="134.239829">
 <ele>89.7</ele>
 <time>2020-03-24T15:56:53Z</time>
</trkpt>
<trkpt lat="35.508339" lon="134.239776">
 <ele>93.2</ele>
 <time>2020-03-24T15:56:53Z</time>
</trkpt>
<trkpt lat="35.508356" lon="134.239840">
 <ele>95</ele>
 <time>2020-03-24T15:56:53Z</time>
</trkpt>
<trkpt lat="35.508322" lon="134.239915">
 <ele>94.9</ele>
 <time>2020-03-24T15:56:53Z</time>
</trkpt>
<trkpt lat="35.508305" lon="134.239979">
 <ele>97.3</ele>
 <time>2020-03-24T15:56:53Z</time>
</trkpt>
<trkpt lat="35.508296" lon="134.240097">
 <ele>96.8</ele>
 <time>2020-03-24T15:56:53Z</time>
</trkpt>
<trkpt lat="35.508296" lon="134.240183">
 <ele>98.3</ele>
 <time>2020-03-24T15:56:54Z</time>
</trkpt>
<trkpt lat="35.508356" lon="134.240183">
 <ele>104.2</ele>
 <time>2020-03-24T15:56:54Z</time>
</trkpt>
<trkpt lat="35.508399" lon="134.240097">
 <ele>104.9</ele>
 <time>2020-03-24T15:56:54Z</time>
</trkpt>
<trkpt lat="35.508425" lon="134.240022">
 <ele>106.4</ele>
 <time>2020-03-24T15:56:54Z</time>
</trkpt>
<trkpt lat="35.508485" lon="134.239979">
 <ele>110.1</ele>
 <time>2020-03-24T15:56:54Z</time>
</trkpt>
<trkpt lat="35.508528" lon="134.239958">
 <ele>111.4</ele>
 <time>2020-03-24T15:56:54Z</time>
</trkpt>
<trkpt lat="35.508545" lon="134.240001">
 <ele>115.6</ele>
 <time>2020-03-24T15:56:54Z</time>
</trkpt>
<trkpt lat="35.508588" lon="134.240065">
 <ele>121.7</ele>
 <time>2020-03-24T15:56:54Z</time>
</trkpt>
<trkpt lat="35.508657" lon="134.239990">
 <ele>124</ele>
 <time>2020-03-24T15:56:55Z</time>
</trkpt>
<trkpt lat="35.508717" lon="134.240012">
 <ele>126.8</ele>
 <time>2020-03-24T15:56:55Z</time>
</trkpt>
<trkpt lat="35.508760" lon="134.240065">
 <ele>136</ele>
 <time>2020-03-24T15:56:55Z</time>
</trkpt>
<trkpt lat="35.508777" lon="134.240130">
 <ele>137.6</ele>
 <time>2020-03-24T15:56:55Z</time>
</trkpt>
<trkpt lat="35.508785" lon="134.240183">
 <ele>139.3</ele>
 <time>2020-03-24T15:56:55Z</time>
</trkpt>
<trkpt lat="35.508785" lon="134.240269">
 <ele>142.9</ele>
 <time>2020-03-24T15:56:55Z</time>
</trkpt>
<trkpt lat="35.508820" lon="134.240409">
 <ele>149.3</ele>
 <time>2020-03-24T15:56:55Z</time>
</trkpt>
<trkpt lat="35.508803" lon="134.240516">
 <ele>150.2</ele>
 <time>2020-03-24T15:56:55Z</time>
</trkpt>
<trkpt lat="35.508820" lon="134.240569">
 <ele>150.6</ele>
 <time>2020-03-24T15:56:56Z</time>
</trkpt>
<trkpt lat="35.508888" lon="134.240494">
 <ele>156.7</ele>
 <time>2020-03-24T15:56:56Z</time>
</trkpt>
<trkpt lat="35.508940" lon="134.240569">
 <ele>164.3</ele>
 <time>2020-03-24T15:56:56Z</time>
</trkpt>
<trkpt lat="35.508923" lon="134.240634">
 <ele>161.8</ele>
 <time>2020-03-24T15:56:56Z</time>
</trkpt>
<trkpt lat="35.508940" lon="134.240687">
 <ele>166.4</ele>
 <time>2020-03-24T15:56:56Z</time>
</trkpt>
<trkpt lat="35.508983" lon="134.240730">
 <ele>171</ele>
 <time>2020-03-24T15:56:56Z</time>
</trkpt>
<trkpt lat="35.509009" lon="134.240763">
 <ele>175.2</ele>
 <time>2020-03-24T15:56:56Z</time>
</trkpt>
<trkpt lat="35.509034" lon="134.240709">
 <ele>177.1</ele>
 <time>2020-03-24T15:56:56Z</time>
</trkpt>
<trkpt lat="35.509069" lon="134.240709">
 <ele>180</ele>
 <time>2020-03-24T15:56:57Z</time>
</trkpt>
<trkpt lat="35.509094" lon="134.240763">
 <ele>180.3</ele>
 <time>2020-03-24T15:56:57Z</time>
</trkpt>
<trkpt lat="35.509120" lon="134.240784">
 <ele>182.1</ele>
 <time>2020-03-24T15:56:57Z</time>
</trkpt>
<trkpt lat="35.509172" lon="134.240784">
 <ele>183.9</ele>
 <time>2020-03-24T15:56:57Z</time>
</trkpt>
<trkpt lat="35.509215" lon="134.240805">
 <ele>188.7</ele>
 <time>2020-03-24T15:56:57Z</time>
</trkpt>
<trkpt lat="35.509266" lon="134.240763">
 <ele>190.5</ele>
 <time>2020-03-24T15:56:57Z</time>
</trkpt>
<trkpt lat="35.509309" lon="134.240827">
 <ele>194.3</ele>
 <time>2020-03-24T15:56:57Z</time>
</trkpt>
<trkpt lat="35.509335" lon="134.240870">
 <ele>198.4</ele>
 <time>2020-03-24T15:56:58Z</time>
</trkpt>
<trkpt lat="35.509395" lon="134.240838">
 <ele>202.6</ele>
 <time>2020-03-24T15:56:58Z</time>
</trkpt>
<trkpt lat="35.509472" lon="134.240795">
 <ele>206.2</ele>
 <time>2020-03-24T15:56:58Z</time>
</trkpt>
<trkpt lat="35.509575" lon="134.240827">
 <ele>216</ele>
 <time>2020-03-24T15:56:58Z</time>
</trkpt>
<trkpt lat="35.509627" lon="134.240913">
 <ele>219.6</ele>
 <time>2020-03-24T15:56:58Z</time>
</trkpt>
<trkpt lat="35.509635" lon="134.241020">
 <ele>224.9</ele>
 <time>2020-03-24T15:56:58Z</time>
</trkpt>
<trkpt lat="35.509635" lon="134.241117">
 <ele>227.3</ele>
 <time>2020-03-24T15:56:58Z</time>
</trkpt>
<trkpt lat="35.509712" lon="134.241074">
 <ele>232.5</ele>
 <time>2020-03-24T15:56:58Z</time>
</trkpt>
<trkpt lat="35.509755" lon="134.241042">
 <ele>233.7</ele>
 <time>2020-03-24T15:56:59Z</time>
</trkpt>
<trkpt lat="35.509815" lon="134.241031">
 <ele>237.4</ele>
 <time>2020-03-24T15:56:59Z</time>
</trkpt>
<trkpt lat="35.509824" lon="134.241084">
 <ele>239.6</ele>
 <time>2020-03-24T15:56:59Z</time>
</trkpt>
<trkpt lat="35.509824" lon="134.241192">
 <ele>243.3</ele>
 <time>2020-03-24T15:56:59Z</time>
</trkpt>
<trkpt lat="35.509850" lon="134.241331">
 <ele>247.2</ele>
 <time>2020-03-24T15:56:59Z</time>
</trkpt>
<trkpt lat="35.509858" lon="134.241449">
 <ele>248.2</ele>
 <time>2020-03-24T15:56:59Z</time>
</trkpt>
<trkpt lat="35.509918" lon="134.241524">
 <ele>253.6</ele>
 <time>2020-03-24T15:56:59Z</time>
</trkpt>
<trkpt lat="35.509987" lon="134.241556">
 <ele>255.7</ele>
 <time>2020-03-24T15:56:59Z</time>
</trkpt>
<trkpt lat="35.510047" lon="134.241503">
 <ele>258.5</ele>
 <time>2020-03-24T15:57:00Z</time>
</trkpt>
<trkpt lat="35.510090" lon="134.241417">
 <ele>260.2</ele>
 <time>2020-03-24T15:57:00Z</time>
</trkpt>
<trkpt lat="35.510124" lon="134.241342">
 <ele>260.3</ele>
 <time>2020-03-24T15:57:00Z</time>
</trkpt>
<trkpt lat="35.510159" lon="134.241245">
 <ele>260.3</ele>
 <time>2020-03-24T15:57:00Z</time>
</trkpt>
<trkpt lat="35.510202" lon="134.241127">
 <ele>260.3</ele>
 <time>2020-03-24T15:57:00Z</time>
</trkpt>
<trkpt lat="35.510245" lon="134.241020">
 <ele>260.3</ele>
 <time>2020-03-24T15:57:00Z</time>
</trkpt>
<trkpt lat="35.510250" lon="134.240778">
 <ele>260.5</ele>
 <time>2020-03-24T15:57:00Z</time>
</trkpt>
<trkpt lat="35.510245" lon="134.241020">
 <ele>260.3</ele>
 <time>2020-03-24T15:57:01Z</time>
</trkpt>
<trkpt lat="35.510202" lon="134.241127">
 <ele>260.3</ele>
 <time>2020-03-24T15:57:01Z</time>
</trkpt>
<trkpt lat="35.510159" lon="134.241245">
 <ele>260.3</ele>
 <time>2020-03-24T15:57:01Z</time>
</trkpt>
<trkpt lat="35.510124" lon="134.241342">
 <ele>260.3</ele>
 <time>2020-03-24T15:57:01Z</time>
</trkpt>
<trkpt lat="35.510090" lon="134.241417">
 <ele>260.2</ele>
 <time>2020-03-24T15:57:01Z</time>
</trkpt>
<trkpt lat="35.510047" lon="134.241503">
 <ele>258.5</ele>
 <time>2020-03-24T15:57:01Z</time>
</trkpt>
<trkpt lat="35.509987" lon="134.241556">
 <ele>255.7</ele>
 <time>2020-03-24T15:57:01Z</time>
</trkpt>
<trkpt lat="35.509918" lon="134.241524">
 <ele>253.6</ele>
 <time>2020-03-24T15:57:01Z</time>
</trkpt>
<trkpt lat="35.509858" lon="134.241449">
 <ele>248.2</ele>
 <time>2020-03-24T15:57:02Z</time>
</trkpt>
<trkpt lat="35.509850" lon="134.241331">
 <ele>247.2</ele>
 <time>2020-03-24T15:57:02Z</time>
</trkpt>
<trkpt lat="35.509824" lon="134.241192">
 <ele>243.3</ele>
 <time>2020-03-24T15:57:02Z</time>
</trkpt>
<trkpt lat="35.509824" lon="134.241084">
 <ele>239.6</ele>
 <time>2020-03-24T15:57:02Z</time>
</trkpt>
<trkpt lat="35.509815" lon="134.241031">
 <ele>237.4</ele>
 <time>2020-03-24T15:57:02Z</time>
</trkpt>
<trkpt lat="35.509755" lon="134.241042">
 <ele>233.7</ele>
 <time>2020-03-24T15:57:02Z</time>
</trkpt>
<trkpt lat="35.509712" lon="134.241074">
 <ele>232.5</ele>
 <time>2020-03-24T15:57:02Z</time>
</trkpt>
<trkpt lat="35.509635" lon="134.241117">
 <ele>227.3</ele>
 <time>2020-03-24T15:57:02Z</time>
</trkpt>
<trkpt lat="35.509635" lon="134.241020">
 <ele>224.9</ele>
 <time>2020-03-24T15:57:03Z</time>
</trkpt>
<trkpt lat="35.509627" lon="134.240913">
 <ele>219.6</ele>
 <time>2020-03-24T15:57:03Z</time>
</trkpt>
<trkpt lat="35.509575" lon="134.240827">
 <ele>216</ele>
 <time>2020-03-24T15:57:03Z</time>
</trkpt>
<trkpt lat="35.509472" lon="134.240795">
 <ele>206.2</ele>
 <time>2020-03-24T15:57:03Z</time>
</trkpt>
<trkpt lat="35.509395" lon="134.240838">
 <ele>202.6</ele>
 <time>2020-03-24T15:57:03Z</time>
</trkpt>
<trkpt lat="35.509335" lon="134.240870">
 <ele>198.4</ele>
 <time>2020-03-24T15:57:03Z</time>
</trkpt>
<trkpt lat="35.509309" lon="134.240827">
 <ele>194.3</ele>
 <time>2020-03-24T15:57:03Z</time>
</trkpt>
<trkpt lat="35.509266" lon="134.240763">
 <ele>190.5</ele>
 <time>2020-03-24T15:57:03Z</time>
</trkpt>
<trkpt lat="35.509215" lon="134.240805">
 <ele>188.7</ele>
 <time>2020-03-24T15:57:04Z</time>
</trkpt>
<trkpt lat="35.509172" lon="134.240784">
 <ele>183.9</ele>
 <time>2020-03-24T15:57:04Z</time>
</trkpt>
<trkpt lat="35.509120" lon="134.240784">
 <ele>182.1</ele>
 <time>2020-03-24T15:57:04Z</time>
</trkpt>
<trkpt lat="35.509094" lon="134.240763">
 <ele>180.3</ele>
 <time>2020-03-24T15:57:04Z</time>
</trkpt>
<trkpt lat="35.509069" lon="134.240709">
 <ele>180</ele>
 <time>2020-03-24T15:57:04Z</time>
</trkpt>
<trkpt lat="35.509034" lon="134.240709">
 <ele>177.1</ele>
 <time>2020-03-24T15:57:04Z</time>
</trkpt>
<trkpt lat="35.509009" lon="134.240763">
 <ele>175.2</ele>
 <time>2020-03-24T15:57:04Z</time>
</trkpt>
<trkpt lat="35.508983" lon="134.240730">
 <ele>171</ele>
 <time>2020-03-24T15:57:04Z</time>
</trkpt>
<trkpt lat="35.508940" lon="134.240687">
 <ele>166.4</ele>
 <time>2020-03-24T15:57:05Z</time>
</trkpt>
<trkpt lat="35.508923" lon="134.240634">
 <ele>161.8</ele>
 <time>2020-03-24T15:57:05Z</time>
</trkpt>
<trkpt lat="35.508940" lon="134.240569">
 <ele>164.3</ele>
 <time>2020-03-24T15:57:05Z</time>
</trkpt>
<trkpt lat="35.508888" lon="134.240494">
 <ele>156.7</ele>
 <time>2020-03-24T15:57:05Z</time>
</trkpt>
<trkpt lat="35.508820" lon="134.240569">
 <ele>150.6</ele>
 <time>2020-03-24T15:57:05Z</time>
</trkpt>
<trkpt lat="35.508803" lon="134.240516">
 <ele>150.2</ele>
 <time>2020-03-24T15:57:05Z</time>
</trkpt>
<trkpt lat="35.508820" lon="134.240409">
 <ele>149.3</ele>
 <time>2020-03-24T15:57:05Z</time>
</trkpt>
<trkpt lat="35.508785" lon="134.240269">
 <ele>142.9</ele>
 <time>2020-03-24T15:57:06Z</time>
</trkpt>
<trkpt lat="35.508785" lon="134.240183">
 <ele>139.3</ele>
 <time>2020-03-24T15:57:06Z</time>
</trkpt>
<trkpt lat="35.508777" lon="134.240130">
 <ele>137.6</ele>
 <time>2020-03-24T15:57:06Z</time>
</trkpt>
<trkpt lat="35.508760" lon="134.240065">
 <ele>136</ele>
 <time>2020-03-24T15:57:06Z</time>
</trkpt>
<trkpt lat="35.508717" lon="134.240012">
 <ele>126.8</ele>
 <time>2020-03-24T15:57:06Z</time>
</trkpt>
<trkpt lat="35.508657" lon="134.239990">
 <ele>124</ele>
 <time>2020-03-24T15:57:06Z</time>
</trkpt>
<trkpt lat="35.508588" lon="134.240065">
 <ele>121.7</ele>
 <time>2020-03-24T15:57:06Z</time>
</trkpt>
<trkpt lat="35.508545" lon="134.240001">
 <ele>115.6</ele>
 <time>2020-03-24T15:57:06Z</time>
</trkpt>
<trkpt lat="35.508528" lon="134.239958">
 <ele>111.4</ele>
 <time>2020-03-24T15:57:07Z</time>
</trkpt>
<trkpt lat="35.508485" lon="134.239979">
 <ele>110.1</ele>
 <time>2020-03-24T15:57:07Z</time>
</trkpt>
<trkpt lat="35.508425" lon="134.240022">
 <ele>106.4</ele>
 <time>2020-03-24T15:57:07Z</time>
</trkpt>
<trkpt lat="35.508399" lon="134.240097">
 <ele>104.9</ele>
 <time>2020-03-24T15:57:07Z</time>
</trkpt>
<trkpt lat="35.508356" lon="134.240183">
 <ele>104.2</ele>
 <time>2020-03-24T15:57:07Z</time>
</trkpt>
<trkpt lat="35.508296" lon="134.240183">
 <ele>98.3</ele>
 <time>2020-03-24T15:57:07Z</time>
</trkpt>
<trkpt lat="35.508296" lon="134.240097">
 <ele>96.8</ele>
 <time>2020-03-24T15:57:07Z</time>
</trkpt>
<trkpt lat="35.508305" lon="134.239979">
 <ele>97.3</ele>
 <time>2020-03-24T15:57:07Z</time>
</trkpt>
<trkpt lat="35.508322" lon="134.239915">
 <ele>94.9</ele>
 <time>2020-03-24T15:57:08Z</time>
</trkpt>
<trkpt lat="35.508356" lon="134.239840">
 <ele>95</ele>
 <time>2020-03-24T15:57:08Z</time>
</trkpt>
<trkpt lat="35.508339" lon="134.239776">
 <ele>93.2</ele>
 <time>2020-03-24T15:57:08Z</time>
</trkpt>
<trkpt lat="35.508279" lon="134.239829">
 <ele>89.7</ele>
 <time>2020-03-24T15:57:08Z</time>
</trkpt>
<trkpt lat="35.508228" lon="134.239872">
 <ele>86</ele>
 <time>2020-03-24T15:57:08Z</time>
</trkpt>
<trkpt lat="35.508168" lon="134.239861">
 <ele>83.5</ele>
 <time>2020-03-24T15:57:08Z</time>
</trkpt>
<trkpt lat="35.508150" lon="134.239808">
 <ele>80.2</ele>
 <time>2020-03-24T15:57:08Z</time>
</trkpt>
<trkpt lat="35.508176" lon="134.239733">
 <ele>80.2</ele>
 <time>2020-03-24T15:57:08Z</time>
</trkpt>
<trkpt lat="35.508202" lon="134.239657">
 <ele>79.7</ele>
 <time>2020-03-24T15:57:09Z</time>
</trkpt>
<trkpt lat="35.508262" lon="134.239572">
 <ele>78.6</ele>
 <time>2020-03-24T15:57:09Z</time>
</trkpt>
<trkpt lat="35.508305" lon="134.239518">
 <ele>80.2</ele>
 <time>2020-03-24T15:57:09Z</time>
</trkpt>
<trkpt lat="35.508288" lon="134.239454">
 <ele>77.8</ele>
 <time>2020-03-24T15:57:09Z</time>
</trkpt>
<trkpt lat="35.508228" lon="134.239454">
 <ele>75.4</ele>
 <time>2020-03-24T15:57:09Z</time>
</trkpt>
<trkpt lat="35.508150" lon="134.239464">
 <ele>72.9</ele>
 <time>2020-03-24T15:57:09Z</time>
</trkpt>
<trkpt lat="35.508039" lon="134.239507">
 <ele>68.3</ele>
 <time>2020-03-24T15:57:09Z</time>
</trkpt>
<trkpt lat="35.507944" lon="134.239507">
 <ele>62.8</ele>
 <time>2020-03-24T15:57:09Z</time>
</trkpt>
<trkpt lat="35.507884" lon="134.239443">
 <ele>56.9</ele>
 <time>2020-03-24T15:57:10Z</time>
</trkpt>
<trkpt lat="35.507850" lon="134.239357">
 <ele>52.3</ele>
 <time>2020-03-24T15:57:10Z</time>
</trkpt>
<trkpt lat="35.507781" lon="134.239346">
 <ele>49.5</ele>
 <time>2020-03-24T15:57:10Z</time>
</trkpt>
<trkpt lat="35.507678" lon="134.239389">
 <ele>46.3</ele>
 <time>2020-03-24T15:57:10Z</time>
</trkpt>
<trkpt lat="35.507695" lon="134.239314">
 <ele>43.8</ele>
 <time>2020-03-24T15:57:10Z</time>
</trkpt>
<trkpt lat="35.507713" lon="134.239218">
 <ele>42.2</ele>
 <time>2020-03-24T15:57:10Z</time>
</trkpt>
<trkpt lat="35.507738" lon="134.239132">
 <ele>40</ele>
 <time>2020-03-24T15:57:10Z</time>
</trkpt>
<trkpt lat="35.507738" lon="134.239046">
 <ele>38.7</ele>
 <time>2020-03-24T15:57:11Z</time>
</trkpt>
<trkpt lat="35.507704" lon="134.238971">
 <ele>38.1</ele>
 <time>2020-03-24T15:57:11Z</time>
</trkpt>
<trkpt lat="35.507687" lon="134.238874">
 <ele>38</ele>
 <time>2020-03-24T15:57:11Z</time>
</trkpt>
<trkpt lat="35.507730" lon="134.238756">
 <ele>37.9</ele>
 <time>2020-03-24T15:57:11Z</time>
</trkpt>
<trkpt lat="35.507824" lon="134.238488">
 <ele>37.8</ele>
 <time>2020-03-24T15:57:11Z</time>
</trkpt>
<trkpt lat="35.507867" lon="134.238349">
 <ele>37.7</ele>
 <time>2020-03-24T15:57:11Z</time>
</trkpt>
<trkpt lat="35.508030" lon="134.238145">
 <ele>37.5</ele>
 <time>2020-03-24T15:57:11Z</time>
</trkpt>
<trkpt lat="35.508116" lon="134.238037">
 <ele>36.9</ele>
 <time>2020-03-24T15:57:11Z</time>
</trkpt>
<trkpt lat="35.508408" lon="134.237898">
 <ele>38.9</ele>
 <time>2020-03-24T15:57:12Z</time>
</trkpt>
<trkpt lat="35.508442" lon="134.237823">
 <ele>40.6</ele>
 <time>2020-03-24T15:57:12Z</time>
</trkpt>
<trkpt lat="35.508399" lon="134.237716">
 <ele>34.1</ele>
 <time>2020-03-24T15:57:12Z</time>
</trkpt>
<trkpt lat="35.508339" lon="134.237587">
 <ele>26.2</ele>
 <time>2020-03-24T15:57:12Z</time>
</trkpt>
<trkpt lat="35.508296" lon="134.237576">
 <ele>26.1</ele>
 <time>2020-03-24T15:57:12Z</time>
</trkpt>
<trkpt lat="35.508150" lon="134.237683">
 <ele>26.1</ele>
 <time>2020-03-24T15:57:12Z</time>
</trkpt>
<trkpt lat="35.507962" lon="134.237866">
 <ele>25.4</ele>
 <time>2020-03-24T15:57:12Z</time>
</trkpt>
<trkpt lat="35.507893" lon="134.237855">
 <ele>24.2</ele>
 <time>2020-03-24T15:57:12Z</time>
</trkpt>
<trkpt lat="35.507781" lon="134.237726">
 <ele>17.7</ele>
 <time>2020-03-24T15:57:13Z</time>
</trkpt>
<trkpt lat="35.507798" lon="134.237630">
 <ele>15.5</ele>
 <time>2020-03-24T15:57:13Z</time>
</trkpt>
<trkpt lat="35.507841" lon="134.237544">
 <ele>15.1</ele>
 <time>2020-03-24T15:57:13Z</time>
</trkpt>
<trkpt lat="35.507970" lon="134.237286">
 <ele>12.9</ele>
 <time>2020-03-24T15:57:13Z</time>
</trkpt>
<trkpt lat="35.508013" lon="134.237168">
 <ele>10.1</ele>
 <time>2020-03-24T15:57:13Z</time>
</trkpt>
<trkpt lat="35.507936" lon="134.237029">
 <ele>8.4</ele>
 <time>2020-03-24T15:57:13Z</time>
</trkpt>
<trkpt lat="35.507859" lon="134.236857">
 <ele>7.6</ele>
 <time>2020-03-24T15:57:13Z</time>
</trkpt>
<trkpt lat="35.507721" lon="134.236568">
 <ele>6.2</ele>
 <time>2020-03-24T15:57:13Z</time>
</trkpt>
<trkpt lat="35.507404" lon="134.235902">
 <ele>4.6</ele>
 <time>2020-03-24T15:57:14Z</time>
</trkpt>
</trkseg>
</trk>
</gpx>

